User: anonymous   Login
Location: Waning Moon II Observatory
(30.3730°N, 89.7620°W)
Time: 09:02:05
(UTC-06:00)
Language:

Meteor 1-21 - Orbit

View from above orbital plane
View from above orbital plane
View from above satellite
View from above satellite

Ground track
Ground track

The orbit data is extracted from the following two-line orbital elements,

1 07714U 75023A   14330.13609778  .00000094  00000-0  48035-4 0  9467
2 07714 081.2124 021.0943 0034241 009.9603 045.8475 14.07849698353762
Epoch (UTC): 26 November 2014 03:15:58
Eccentricity: 0.0034241
inclination: 81.2124°
perigee height: 842 km
apogee height: 891 km
right ascension of ascending node: 21.0943°
argument of perigee: 9.9603°
revolutions per day: 14.07849698
mean anomaly at epoch: 45.8475°
orbit number at epoch: 35376

The dashed part of the orbit path shows where the satellite is in the earth's shadow,  

DLR